DLH51U LOWG-LIEO

Flight info

Callsign DLH51U
Flight time N/A
Altitude 36000
Route RADLY DCT RIFEN P735 RCH DCT BABAG DCT AGOMO DCT PIDEP DCT VERUN DCT MEDAL DCT TINTO L5 BATOX
Aircraft A321/M-SDE3FGHIRWY/LB1

Departure

Time 2026-04-29 16:35
Airport Graz Airport (LOWG)

Arrival

Time N/A
Airport Olbia Costa Smeralda Airport (LIEO)
Time Latitude Longitude Altitude Speed Heading
2026-04-29 16:22 46.99753 15.44333 1109 ft 0 kts 169°
2026-04-29 16:31 46.99749 15.44328 1106 ft 1 kts 214°
2026-04-29 16:32 46.99763 15.44302 1108 ft 6 kts 327°
2026-04-29 16:32 46.99802 15.44260 1116 ft 8 kts 305°
2026-04-29 16:32 46.99826 15.44177 1110 ft 10 kts 320°
2026-04-29 16:32 46.99917 15.44139 1115 ft 20 kts 349°
2026-04-29 16:33 47.00248 15.44048 1113 ft 25 kts 349°
2026-04-29 16:33 47.00368 15.43889 1116 ft 24 kts 305°
2026-04-29 16:33 47.00427 15.43677 1124 ft 22 kts 254°
2026-04-29 16:34 47.00335 15.43625 1122 ft 0 kts 169°
2026-04-29 16:34 47.00334 15.43625 1122 ft 1 kts 169°
2026-04-29 16:34 47.00140 15.43679 1120 ft 67 kts 169°
2026-04-29 16:34 46.99446 15.43871 1111 ft 133 kts 169°
2026-04-29 16:35 46.98384 15.44169 1353 ft 164 kts 170°
2026-04-29 16:35 46.97260 15.44490 2036 ft 170 kts 170°
2026-04-29 16:35 46.96024 15.44725 2524 ft 190 kts 187°
2026-04-29 16:35 46.94761 15.43962 3004 ft 205 kts 208°
2026-04-29 16:36 46.93460 15.42906 3336 ft 223 kts 208°
2026-04-29 16:36 46.92016 15.41782 3516 ft 248 kts 207°
2026-04-29 16:36 46.90426 15.40565 3945 ft 265 kts 207°
2026-04-29 16:36 46.88768 15.39305 4626 ft 272 kts 207°
2026-04-29 16:37 46.87068 15.38010 5309 ft 278 kts 207°
2026-04-29 16:37 46.85340 15.36696 6061 ft 282 kts 207°
2026-04-29 16:37 46.83592 15.35370 6835 ft 284 kts 207°
2026-04-29 16:37 46.82428 15.34486 7301 ft 286 kts 208°
2026-04-29 16:38 46.80078 15.32694 8279 ft 290 kts 208°
2026-04-29 16:38 46.78285 15.31323 9005 ft 292 kts 209°
2026-04-29 16:38 46.76476 15.29937 9735 ft 295 kts 209°
2026-04-29 16:38 46.74650 15.28534 10403 ft 300 kts 210°
2026-04-29 16:39 46.72734 15.27058 10562 ft 323 kts 210°
2026-04-29 16:39 46.70681 15.25480 10713 ft 344 kts 210°
2026-04-29 16:39 46.68536 15.23838 11153 ft 352 kts 210°
2026-04-29 16:39 46.66376 15.22101 11760 ft 355 kts 215°
2026-04-29 16:40 46.64449 15.19859 12380 ft 355 kts 227°
2026-04-29 16:40 46.62863 15.17110 12990 ft 355 kts 238°
2026-04-29 16:40 46.61455 15.14144 13626 ft 357 kts 238°
2026-04-29 16:40 46.60033 15.11170 14238 ft 360 kts 238°
2026-04-29 16:41 46.58597 15.08182 14794 ft 361 kts 237°
2026-04-29 16:41 46.57148 15.05193 15391 ft 362 kts 237°
2026-04-29 16:41 46.55701 15.02199 15989 ft 362 kts 238°
2026-04-29 16:41 46.54278 14.99234 16569 ft 364 kts 238°
2026-04-29 16:42 46.52830 14.96210 17148 ft 365 kts 239°
2026-04-29 16:42 46.51375 14.93176 17722 ft 367 kts 238°
2026-04-29 16:42 46.49889 14.90095 18311 ft 369 kts 239°
2026-04-29 16:42 46.48432 14.87082 18817 ft 370 kts 239°
2026-04-29 16:43 46.46929 14.83979 19296 ft 372 kts 239°
2026-04-29 16:43 46.45460 14.80949 19743 ft 373 kts 239°
2026-04-29 16:43 46.43948 14.77830 20226 ft 374 kts 239°
2026-04-29 16:43 46.42472 14.74779 20687 ft 375 kts 239°
2026-04-29 16:44 46.40973 14.71680 21191 ft 377 kts 239°
2026-04-29 16:44 46.39463 14.68566 21653 ft 378 kts 239°
2026-04-29 16:44 46.37945 14.65449 22003 ft 379 kts 239°
2026-04-29 16:44 46.36420 14.62321 22353 ft 381 kts 238°
2026-04-29 16:45 46.34887 14.59176 22819 ft 383 kts 239°
2026-04-29 16:45 46.33347 14.56022 23196 ft 385 kts 239°
2026-04-29 16:45 46.31801 14.52855 23592 ft 387 kts 239°
2026-04-29 16:45 46.30243 14.49674 24009 ft 388 kts 239°
2026-04-29 16:46 46.28676 14.46482 24377 ft 390 kts 239°
2026-04-29 16:46 46.27123 14.43319 24736 ft 391 kts 239°
2026-04-29 16:46 46.25526 14.40063 25062 ft 394 kts 239°
2026-04-29 16:46 46.23936 14.36825 25380 ft 396 kts 239°
2026-04-29 16:47 46.22881 14.34676 25597 ft 397 kts 239°
2026-04-29 16:47 46.21275 14.31414 25934 ft 399 kts 239°
2026-04-29 16:47 46.19139 14.27086 26365 ft 401 kts 239°
2026-04-29 16:47 46.17515 14.23795 26709 ft 402 kts 239°
2026-04-29 16:48 46.15883 14.20502 27080 ft 404 kts 240°
2026-04-29 16:48 46.14779 14.18276 27338 ft 405 kts 239°
2026-04-29 16:48 46.13157 14.15004 27680 ft 406 kts 240°
2026-04-29 16:48 46.11511 14.11684 28021 ft 408 kts 240°
2026-04-29 16:49 46.09856 14.08351 28326 ft 410 kts 240°
2026-04-29 16:49 46.08191 14.04997 28577 ft 412 kts 240°
2026-04-29 16:49 46.06514 14.01627 28877 ft 415 kts 239°
2026-04-29 16:49 46.04827 13.98245 29163 ft 417 kts 240°
2026-04-29 16:50 46.03135 13.94861 29466 ft 418 kts 240°
2026-04-29 16:50 46.01429 13.91451 29743 ft 420 kts 240°
2026-04-29 16:50 45.99725 13.88042 29996 ft 421 kts 240°
2026-04-29 16:50 45.98011 13.84614 30226 ft 423 kts 240°
2026-04-29 16:51 45.96290 13.81172 30441 ft 424 kts 240°
2026-04-29 16:51 45.94569 13.77734 30689 ft 424 kts 240°
2026-04-29 16:51 45.92845 13.74307 30991 ft 423 kts 240°
2026-04-29 16:51 45.91124 13.70892 31299 ft 422 kts 240°
2026-04-29 16:52 45.89403 13.67487 31573 ft 420 kts 240°
2026-04-29 16:52 45.87686 13.64096 31852 ft 420 kts 240°
2026-04-29 16:52 45.86038 13.60663 32127 ft 415 kts 245°
2026-04-29 16:52 45.84784 13.56981 32406 ft 408 kts 254°
2026-04-29 16:53 45.83813 13.53174 32677 ft 408 kts 250°
2026-04-29 16:53 45.82373 13.49629 32938 ft 416 kts 239°
2026-04-29 16:53 45.80425 13.46584 33156 ft 425 kts 227°
2026-04-29 16:53 45.78007 13.44056 33394 ft 435 kts 217°
2026-04-29 16:54 45.75358 13.41930 33586 ft 437 kts 216°
2026-04-29 16:54 45.72702 13.39802 33847 ft 437 kts 216°
2026-04-29 16:54 45.70058 13.37676 34088 ft 436 kts 216°
2026-04-29 16:54 45.67419 13.35556 34300 ft 435 kts 216°
2026-04-29 16:55 45.64777 13.33433 34526 ft 435 kts 216°
2026-04-29 16:55 45.62137 13.31313 34729 ft 435 kts 216°
2026-04-29 16:55 45.59501 13.29205 34923 ft 435 kts 216°
2026-04-29 16:55 45.56853 13.27095 35069 ft 436 kts 215°
2026-04-29 16:56 45.54204 13.24990 35239 ft 436 kts 215°
2026-04-29 16:56 45.51553 13.22887 35428 ft 436 kts 215°
2026-04-29 16:56 45.48902 13.20783 35609 ft 436 kts 215°
2026-04-29 16:56 45.46249 13.18677 35804 ft 436 kts 215°
2026-04-29 16:57 45.43597 13.16579 35995 ft 436 kts 215°
2026-04-29 16:57 45.40946 13.14486 36182 ft 436 kts 215°
2026-04-29 16:57 45.38290 13.12383 36307 ft 436 kts 215°
2026-04-29 16:57 45.35670 13.10201 36484 ft 435 kts 217°
2026-04-29 16:58 45.33093 13.07938 36651 ft 435 kts 218°
2026-04-29 16:58 45.30578 13.05666 36816 ft 434 kts 218°
2026-04-29 16:58 45.28033 13.03350 36994 ft 434 kts 218°
2026-04-29 16:58 45.25483 13.01044 37082 ft 435 kts 218°
2026-04-29 16:59 45.20351 12.96485 37089 ft 436 kts 217°
2026-04-29 16:59 45.15182 12.91969 37083 ft 436 kts 217°
2026-04-29 17:00 45.09981 12.87432 37085 ft 442 kts 217°
2026-04-29 17:00 45.04721 12.82833 37059 ft 446 kts 217°
2026-04-29 17:01 44.99124 12.78904 37078 ft 456 kts 204°
2026-04-29 17:01 44.93133 12.75952 37079 ft 456 kts 204°
2026-04-29 17:02 44.87185 12.73004 37079 ft 456 kts 204°
2026-04-29 17:02 44.81200 12.70029 37084 ft 456 kts 204°
2026-04-29 17:03 44.75217 12.67055 37085 ft 456 kts 204°
2026-04-29 17:03 44.69227 12.64099 37084 ft 456 kts 204°
2026-04-29 17:04 44.63236 12.61164 37084 ft 456 kts 204°
2026-04-29 17:04 44.57247 12.58234 37087 ft 456 kts 204°
2026-04-29 17:05 44.51261 12.55298 37092 ft 455 kts 204°
2026-04-29 17:05 44.45276 12.52372 37088 ft 455 kts 204°